User: anonymous   Login
Location: Grossmotten
(48.5500°N, 15.3833°E)
Time: 09:57:10
(UTC+00:00)
Language:

STARLINK-34 - Orbit

View from above orbital plane
View from above orbital plane
View from above satellite
View from above satellite

Ground track
Ground track

The orbit data is extracted from the following two-line orbital elements,

1 44248U 19029P   20019.25001157  .00026139  00000-0  15113-2 0  9990
2 44248  52.9936 170.9944 0001390  94.5548 306.0844 15.12125286 36311
Epoch (UTC): 19 January 2020 06:00:01
Eccentricity: 0.0001390
inclination: 52.9936°
perigee height: 529 km
apogee height: 530 km
right ascension of ascending node: 170.9944°
argument of perigee: 94.5548°
revolutions per day: 15.12125286
mean anomaly at epoch: 306.0844°
orbit number at epoch: 3631

The dashed part of the orbit path shows where the satellite is in the earth's shadow,  

DLR